RH
50 46 43 40 38 37 36 36 35 34 34 35 36 36 36 36 36 35 35 34 34 34 34 34 34 34 34 34 34 35 35 35 35 35 34 32 31 30 29 29 28 28 28 27 28 29 30 30 30 31 32 32 31 31 32 32 32 31 32 40 44 40 40 41 40 37 35 35 35 33 30 29 30 32 34 33 33 34 35 37 39 42 44 46 46 47 49 51
46 43 41 39 37 36 35 35 36 37 37 38 37 37 37 36 36 35 35 34 34 33 32 32 31 31 31 30 30 30 30 30 29 28 26 24 23 23 23 23 23 24 24 25 27 28 29 29 30 31 31 31 30 29 30 29 30 29 32 39 39 36 36 35 34 30 27 28 28 26 26 26 26 29 31 31 33 35 35 38 41 43 45 47 49 50 51 52
39 38 37 35 35 34 35 37 37 37 36 36 35 34 34 33 33 33 32 31 30 29 28 26 26 25 24 23 22 21 21 20 19 18 17 16 16 16 15 16 17 19 21 22 24 24 25 26 27 27 27 26 25 24 23 23 24 24 28 34 33 31 31 30 30 26 24 26 25 25 26 26 27 29 30 30 33 34 34 37 40 42 44 47 50 52 52 51
34 33 32 31 32 33 34 34 34 33 32 31 30 29 29 28 28 27 27 26 25 24 23 21 19 18 16 15 15 15 15 15 15 15 16 15 15 16 16 16 17 18 19 20 21 22 23 23 24 24 24 24 23 22 22 23 25 26 28 29 29 28 30 28 27 25 25 25 24 25 26 26 29 30 30 30 32 33 33 36 38 41 45 46 49 51 51 49
30 29 29 29 31 32 32 31 30 29 27 26 26 25 24 23 23 22 22 21 19 18 16 15 14 13 13 13 14 16 18 19 20 19 20 20 20 20 19 19 19 19 19 20 20 21 22 23 23 23 22 23 22 22 23 23 24 25 26 25 25 26 27 26 25 25 25 24 24 24 24 26 28 28 28 28 29 29 31 35 38 41 44 45 47 48 48 47
28 28 28 29 29 30 29 28 27 25 25 25 24 24 23 22 21 19 17 15 13 12 12 13 13 14 15 17 19 22 23 24 23 22 22 22 21 20 19 19 19 19 20 20 21 22 22 23 23 23 23 22 22 22 22 24 23 23 24 24 23 23 23 23 24 24 24 23 22 23 24 25 26 25 26 25 26 28 31 35 38 38 41 43 44 45 44 44
27 27 27 27 27 26 26 25 25 25 25 25 24 23 22 20 16 14 12 11 12 13 13 15 16 17 19 21 23 24 24 24 23 22 21 20 19 18 18 18 18 19 19 19 20 21 21 21 22 22 22 21 22 22 22 22 22 21 22 22 22 22 22 22 23 23 22 22 22 23 24 24 23 24 25 25 26 29 32 36 38 37 39 41 41 42 43 42
27 27 27 27 27 27 26 26 26 25 25 24 23 20 17 14 11 11 11 12 14 15 16 17 19 20 21 23 24 24 23 23 22 21 20 19 19 18 17 17 17 17 17 17 17 17 17 17 17 18 18 19 19 19 20 19 19 18 18 19 19 19 19 20 20 20 20 21 21 22 21 22 22 23 23 24 26 29 33 37 38 38 39 40 40 40 41 41
30 30 30 29 28 27 27 27 26 25 23 20 17 15 12 11 11 12 13 13 15 16 17 17 20 21 21 23 23 23 22 21 20 19 19 19 19 17 16 15 15 14 15 15 14 15 14 14 14 14 14 15 15 16 17 16 17 18 16 16 16 16 17 17 17 18 18 19 19 19 19 21 22 22 21 22 25 28 34 36 36 38 38 39 39 39 40 40
35 33 32 31 30 29 28 27 25 21 17 14 13 12 11 12 13 14 14 14 15 16 17 18 21 22 21 21 21 22 20 17 16 16 16 16 16 14 13 12 11 12 12 12 12 12 12 12 12 11 11 11 12 14 15 15 16 16 16 15 15 15 16 16 16 17 17 18 18 18 18 20 21 20 18 20 24 29 33 33 35 37 38 38 38 38 39 39
36 34 32 31 31 29 27 23 18 14 12 12 11 11 13 15 15 15 14 14 15 16 17 19 21 21 20 18 18 20 19 16 15 14 13 13 12 12 11 10 10 10 10 11 11 10 10 10 10 9 10 10 11 12 13 14 15 15 15 15 15 15 15 15 15 16 16 16 17 16 16 17 19 18 17 20 25 27 29 30 33 36 36 37 37 38 38 38
35 33 32 30 28 24 21 17 13 11 11 11 12 13 16 16 15 15 15 14 14 16 18 19 20 19 18 17 17 18 18 17 16 13 13 12 11 11 10 9 9 8 9 10 9 9 9 9 9 10 11 10 12 13 14 14 13 13 14 15 14 13 14 13 13 14 14 15 16 15 15 16 18 18 19 22 25 26 27 28 32 33 35 37 37 38 39 39
34 32 29 27 23 20 17 15 14 14 14 14 15 17 17 16 15 14 14 13 14 17 19 18 18 17 17 17 16 16 17 16 14 12 12 11 10 10 9 8 8 7 8 8 8 8 8 8 9 10 11 12 13 14 13 13 12 13 13 13 14 15 16 15 14 14 14 15 16 16 17 17 19 20 21 23 25 27 27 28 31 32 34 37 38 39 39 39
30 29 27 25 23 20 18 17 17 17 18 18 18 17 17 17 16 14 13 14 15 18 18 16 16 16 16 16 16 15 14 13 12 11 11 10 10 10 9 8 8 8 8 8 8 9 9 10 10 10 11 12 13 13 13 12 12 13 13 13 15 17 19 18 17 17 16 17 18 19 20 18 19 21 21 22 24 25 25 25 28 30 32 35 37 38 38 38
28 29 28 26 23 19 18 18 18 19 19 18 17 17 18 17 16 15 14 14 16 18 18 16 16 16 16 16 14 13 11 10 10 10 10 10 10 10 9 8 8 9 9 9 9 10 10 10 11 11 12 13 13 15 15 14 13 14 14 15 17 18 19 20 19 18 18 17 17 18 19 18 19 20 20 20 21 22 22 21 23 25 27 30 33 36 37 37
30 30 29 26 22 19 17 17 18 18 17 15 16 17 17 17 16 16 16 15 17 18 18 17 16 16 16 14 13 11 10 9 9 9 10 10 9 10 9 9 9 10 10 10 10 10 10 10 11 12 12 13 14 17 19 18 17 17 17 16 17 18 18 20 21 20 18 17 16 16 17 16 17 17 17 18 18 19 19 19 21 22 24 26 28 32 35 37
31 30 27 23 20 17 16 15 16 15 14 14 15 16 16 16 16 16 16 16 16 16 17 17 14 15 15 13 11 11 10 9 9 9 9 10 10 9 9 9 10 10 10 10 10 10 10 11 12 13 13 12 13 17 19 18 20 22 18 15 16 18 16 17 21 21 18 17 17 16 16 14 13 14 15 16 17 17 17 17 18 20 21 23 24 27 30 34
30 28 24 20 18 16 14 13 13 13 13 14 15 16 15 15 16 16 16 16 16 15 16 15 13 16 17 12 10 10 9 9 9 8 9 9 9 9 9 10 10 10 10 10 10 10 10 10 12 15 16 14 13 17 20 20 22 22 18 15 15 17 15 18 22 20 16 16 16 15 15 13 14 15 13 14 16 15 15 16 16 17 18 20 22 23 25 28
28 26 21 18 17 14 12 12 12 13 13 14 15 15 15 15 15 15 15 15 16 17 16 15 14 15 15 12 11 9 8 8 8 9 8 9 9 9 9 9 10 10 9 12 12 9 11 12 14 17 17 15 14 16 19 19 18 18 16 15 16 16 15 19 21 17 16 16 14 13 13 12 13 13 11 12 14 14 14 14 15 16 16 18 19 21 22 22
26 24 20 18 16 13 12 12 12 13 14 14 14 15 16 16 16 16 15 15 16 17 16 14 13 13 12 11 10 7 7 8 8 9 8 9 9 9 9 10 10 10 9 13 13 9 12 16 16 16 16 15 14 15 16 16 16 16 15 16 18 17 16 17 17 15 16 15 12 12 12 10 9 9 10 11 12 13 13 14 14 15 16 17 18 19 21 22
25 23 20 19 16 13 11 11 12 13 14 14 15 17 18 17 18 18 17 16 15 14 13 12 12 12 10 10 8 7 7 8 8 8 8 9 9 8 9 9 10 12 10 12 12 10 13 17 16 15 14 15 14 15 16 16 16 15 15 16 16 18 17 15 15 15 15 15 11 10 11 9 9 8 9 10 11 12 12 13 13 14 15 15 16 18 20 22
25 23 20 19 16 13 11 12 13 14 15 16 16 17 18 16 17 16 15 16 14 12 13 12 12 11 10 9 8 7 8 8 8 8 7 8 8 9 10 8 9 12 10 11 14 14 15 16 15 15 15 16 15 15 16 16 16 15 15 16 14 16 16 14 18 17 15 14 11 11 12 9 9 8 8 10 10 11 11 11 12 12 13 14 15 17 18 20
25 22 20 19 16 13 12 13 14 15 16 17 16 17 17 15 15 13 13 14 13 13 14 12 11 11 10 10 9 8 8 9 9 8 8 8 8 9 11 9 9 10 10 11 13 16 19 17 14 15 16 15 13 13 14 16 19 18 15 13 14 15 15 15 18 16 12 14 15 16 14 11 10 9 8 10 10 10 11 11 12 12 12 13 14 15 17 17
24 21 20 19 16 14 14 14 15 15 15 16 16 16 16 14 12 11 11 12 13 14 14 11 11 11 10 9 9 9 9 10 10 9 9 9 10 10 11 12 11 11 12 12 12 15 18 16 14 16 17 15 13 13 13 14 18 19 16 13 13 14 13 13 13 12 12 17 23 20 13 11 12 11 9 9 10 11 12 12 12 13 13 13 14 14 15 16
23 20 20 18 17 16 15 15 15 16 15 16 16 16 15 13 10 9 10 12 13 13 13 12 11 11 9 9 9 10 11 11 9 9 9 9 11 12 12 13 13 12 14 14 13 14 15 14 14 16 15 13 14 16 15 14 14 16 18 16 14 13 13 12 12 14 15 19 24 19 10 10 11 10 9 10 11 11 11 12 12 13 13 13 14 14 15 15
21 19 19 17 17 17 16 16 16 16 16 16 16 15 13 11 9 8 10 14 15 14 14 13 11 11 9 9 9 10 12 11 9 9 10 10 11 13 13 14 13 13 15 14 15 16 13 13 14 14 14 13 16 18 16 14 13 14 18 17 14 14 14 13 14 17 17 16 18 16 13 12 9 8 9 10 12 11 11 12 12 12 13 13 14 15 15 15
19 19 18 17 17 17 17 18 17 16 17 17 15 13 11 10 9 8 11 15 15 15 14 11 11 11 9 8 8 10 12 11 10 10 10 11 12 12 13 13 13 14 15 15 19 19 13 13 14 13 13 15 19 18 15 14 13 15 18 16 14 14 14 14 14 17 19 16 15 18 19 16 12 10 11 11 12 11 11 12 13 13 13 13 14 15 16 16
18 19 18 18 18 17 17 18 16 17 18 16 13 11 10 10 8 9 15 16 13 14 14 12 10 10 9 9 9 10 11 12 12 11 10 10 11 12 13 14 13 14 15 15 18 18 14 14 15 15 15 17 17 14 13 13 13 15 16 14 14 14 14 14 14 17 21 17 15 20 22 16 13 11 12 13 11 9 10 10 12 13 13 13 14 15 15 16
18 18 18 19 19 17 16 16 16 17 16 13 11 10 10 9 9 12 16 16 13 13 14 12 11 10 10 11 11 11 12 12 12 11 10 10 10 11 12 14 14 14 14 15 15 15 16 16 17 17 16 15 13 11 13 14 13 14 15 14 15 16 16 15 15 18 21 19 16 20 20 14 11 9 11 14 11 9 9 9 10 11 13 14 14 15 15 16
18 18 18 20 20 18 17 17 17 16 13 10 9 10 9 9 12 16 15 13 14 14 13 12 11 11 12 12 12 13 13 12 12 12 11 11 11 10 11 13 13 13 13 13 13 14 16 18 20 19 15 13 13 12 14 14 13 15 15 14 15 15 16 15 15 17 18 18 19 20 18 16 13 9 9 12 11 9 9 8 9 10 13 14 15 16 16 17
18 18 19 20 20 19 18 18 17 13 9 7 9 10 9 10 14 16 12 12 15 14 13 14 13 13 13 13 13 13 13 12 13 12 10 10 11 10 11 12 11 13 13 12 13 14 16 17 19 19 16 15 14 13 16 17 15 15 14 13 13 13 14 15 16 18 15 15 19 19 16 17 17 12 9 11 11 10 10 10 10 10 12 14 15 17 17 18
19 19 20 20 20 19 19 18 14 9 7 8 9 9 11 13 12 11 10 12 15 15 14 15 14 14 14 14 13 13 13 12 13 13 12 11 11 10 12 11 10 13 13 10 12 13 15 15 16 17 16 16 14 14 17 19 18 16 13 13 12 10 12 13 14 15 14 15 18 17 15 16 15 11 11 11 11 11 12 12 12 11 11 13 16 18 18 19
20 20 20 20 20 20 19 15 9 7 7 8 10 10 12 12 10 10 9 9 13 16 16 16 14 13 13 13 13 14 14 12 12 14 14 13 12 13 15 13 12 13 10 8 10 11 14 15 15 16 16 16 14 12 14 16 16 14 12 13 14 11 13 14 12 12 14 15 16 16 17 17 13 11 12 12 11 13 13 13 13 13 13 15 18 21 19 19
22 21 21 21 21 19 16 11 7 7 8 9 11 11 11 9 10 12 11 9 13 17 17 16 14 13 13 12 12 14 14 13 13 13 13 12 10 11 14 14 15 13 10 12 12 10 12 14 15 15 15 15 15 13 14 13 13 14 13 14 15 14 15 15 14 16 18 17 16 19 20 18 14 13 14 13 13 14 13 13 14 15 17 19 21 22 21 20
23 21 22 22 21 17 11 8 7 7 9 11 11 11 10 8 8 9 10 11 14 16 17 17 14 12 12 12 14 16 15 13 14 13 12 11 10 11 12 14 16 15 13 15 15 15 14 13 16 18 17 16 16 19 19 17 17 18 16 16 18 18 17 17 19 21 23 22 22 22 20 17 14 14 14 14 13 13 13 13 15 18 20 21 22 22 21 20
24 22 22 21 18 12 8 8 7 7 10 11 11 10 10 10 9 10 13 16 14 14 16 16 14 10 9 11 13 15 17 16 14 13 12 12 13 14 15 15 18 18 17 16 16 17 16 15 19 20 19 19 19 22 22 20 21 20 18 21 22 20 19 22 24 24 26 27 24 21 19 18 17 16 15 14 14 14 15 16 18 19 21 23 25 24 22 22
24 23 21 18 13 9 8 7 6 8 10 10 11 10 11 11 12 14 18 19 16 15 14 12 14 12 9 10 11 12 16 17 14 13 12 13 16 16 16 18 20 20 19 18 17 17 17 16 18 19 20 21 22 22 22 22 22 20 20 23 22 22 24 26 26 24 25 26 21 18 19 21 22 20 16 15 16 16 17 17 18 20 22 24 26 26 25 25
24 22 18 13 10 8 8 7 7 9 10 10 11 11 12 13 16 18 20 19 17 16 12 10 14 15 10 10 10 12 15 15 13 13 11 13 15 17 16 18 20 20 20 21 19 17 18 18 18 19 19 21 23 22 22 23 23 22 22 23 22 24 25 24 26 25 25 25 21 19 22 23 24 22 18 18 18 17 17 18 19 21 23 24 26 27 27 27
22 19 13 9 9 8 7 7 9 10 9 9 10 11 13 15 18 21 21 21 18 15 12 11 13 14 12 11 12 13 16 14 12 12 12 12 15 17 17 17 19 21 21 22 20 17 18 19 18 19 20 20 21 21 21 23 24 23 23 23 24 25 25 25 26 25 25 26 24 24 24 22 22 22 20 19 19 18 19 20 20 22 23 25 26 28 28 29
18 14 10 8 9 8 8 8 10 10 10 11 11 12 15 18 21 23 22 21 20 16 13 12 13 12 12 14 14 14 16 16 13 13 13 14 15 17 18 17 18 21 22 22 20 18 19 19 18 20 21 21 21 21 21 22 23 24 25 27 27 26 27 28 28 26 26 26 26 27 26 20 18 22 22 20 20 20 21 21 22 24 25 26 28 29 30 30
13 11 10 8 9 9 8 9 11 12 11 11 12 15 17 20 22 24 22 21 21 18 16 15 14 13 13 14 14 14 15 16 15 14 14 14 14 15 18 18 18 21 22 21 21 19 20 21 21 21 21 21 22 22 23 23 23 24 26 29 30 30 30 30 31 31 30 30 28 29 28 20 17 21 22 21 21 22 21 21 22 25 26 27 28 29 31 31
11 10 8 8 9 9 9 11 13 13 11 12 16 19 20 20 21 24 25 23 22 19 18 18 17 16 15 15 15 16 15 15 16 16 15 15 15 15 20 21 20 20 20 20 21 22 22 22 22 22 20 20 22 24 25 25 24 24 25 27 29 32 33 31 32 33 34 34 32 31 32 22 14 18 21 21 22 22 21 22 23 25 27 27 28 30 32 33
11 9 8 8 9 9 10 12 13 14 14 17 20 22 22 21 20 23 24 23 22 20 18 19 19 18 17 17 17 17 17 16 17 17 16 16 17 19 23 25 23 21 20 20 21 24 24 23 24 24 20 20 22 24 25 25 25 24 25 26 27 31 33 33 33 34 36 37 35 34 34 24 14 16 19 20 22 22 23 24 25 26 26 27 29 31 33 36
9 8 8 8 9 9 9 11 12 13 16 19 19 20 21 21 20 21 20 21 20 19 17 18 19 19 19 20 19 18 18 18 16 18 17 17 20 23 24 27 26 21 21 22 22 23 24 24 26 26 23 22 23 24 26 27 26 25 24 25 28 34 39 39 36 38 39 37 34 35 33 23 17 18 18 19 22 22 23 25 26 27 28 29 30 31 34 39
7 8 8 8 8 9 10 11 13 14 16 17 18 18 19 20 22 21 20 21 21 19 17 18 20 20 20 21 21 20 20 19 17 18 19 18 21 26 27 27 26 24 24 24 23 23 24 24 26 28 27 26 25 25 27 27 26 25 24 26 30 37 43 40 37 42 43 38 35 35 31 23 19 20 20 21 22 22 22 25 27 28 29 31 32 32 36 40
8 9 9 8 8 9 10 12 14 15 16 16 15 17 18 18 22 22 21 21 22 20 20 20 21 21 21 22 22 20 21 21 19 20 21 20 20 26 30 29 29 29 27 25 24 25 25 25 26 28 28 27 25 26 28 28 27 27 27 30 35 40 43 41 40 41 40 40 38 33 31 29 22 21 23 23 22 23 24 25 28 28 29 31 33 35 38 41
9 10 10 10 10 10 12 13 14 15 16 14 14 17 18 18 21 23 22 22 22 22 21 20 21 21 20 21 20 19 21 22 22 23 24 22 21 25 30 32 32 32 30 27 27 27 27 27 28 29 29 27 26 27 29 29 29 27 26 31 36 41 44 45 44 39 37 42 39 29 31 35 28 24 26 25 24 25 26 27 28 29 30 32 35 38 41 42
10 10 10 10 12 12 12 14 15 16 16 15 15 17 18 18 20 21 22 23 23 23 21 21 22 21 19 20 19 18 21 21 22 24 25 24 23 24 28 32 35 34 32 30 29 29 29 29 31 34 33 29 28 30 31 31 30 27 26 28 33 39 45 46 43 38 38 43 37 28 31 33 29 26 26 26 27 28 28 29 30 30 32 34 37 40 42 43
11 11 9 10 13 14 14 15 17 17 17 17 16 17 18 18 19 20 21 23 24 23 21 21 22 21 19 20 19 18 19 18 19 23 26 27 27 26 25 29 34 36 33 30 31 32 31 31 36 39 35 30 31 31 31 32 31 28 26 28 30 34 39 43 41 38 40 42 37 33 34 32 28 29 29 28 30 30 30 30 31 32 33 35 38 42 43 44
10 10 10 10 13 15 15 15 17 16 16 16 16 17 19 19 19 20 21 21 21 22 23 21 20 20 20 20 19 18 19 17 17 20 23 25 26 26 24 24 32 38 35 31 33 34 33 34 37 38 36 32 30 30 32 33 31 28 27 27 29 31 34 39 41 39 43 43 38 37 39 35 30 31 32 31 32 32 32 32 32 33 34 37 40 43 44 45
9 9 9 11 13 15 15 15 16 14 14 15 15 17 19 19 19 19 20 21 20 21 23 22 20 21 22 22 21 19 18 19 19 19 20 21 22 23 23 22 29 37 37 35 36 36 35 35 34 38 40 35 30 32 35 34 33 32 30 29 29 31 34 37 40 41 44 45 43 44 45 39 33 33 33 33 33 34 34 35 35 35 35 39 43 45 47 48
9 9 9 10 13 15 15 14 15 14 14 15 17 19 21 20 20 19 18 20 22 21 21 22 20 20 21 23 23 21 21 21 21 21 21 22 22 22 23 23 26 32 36 38 37 36 37 36 35 41 45 38 33 38 39 38 39 37 34 31 31 32 35 36 37 39 41 44 47 47 44 38 35 35 36 35 36 37 37 37 38 37 36 40 44 46 49 51